Temp_Advection
nan nan nan nan nan nan nan nan nan nan nan nan nan nan nan nan nan nan nan nan nan nan nan nan nan nan nan nan nan nan nan nan nan nan nan nan nan nan nan nan nan nan nan
nan 0 0 0 -0 -0 0 0 0 0 0 0 0 0 0 -0 -0 -0 -0 -0 -0 -0 -0 -0 -0 -0 -0 0 0 -0 -0 -1 -0 -1 -0 -0 0 -0 0 -0 -0 0 nan
nan 0 0 -0 0 0 0 0 0 0 0 0 0 0 -0 -0 -0 -0 -0 -0 -0 0 -0 -0 -0 -0 -0 -0 0 0 0 -0 -0 -0 -0 -0 -0 -1 0 -0 -0 -0 nan
nan 0 0 0 0 0 0 0 0 0 0 0 0 0 -0 -0 -0 -0 -0 -0 -0 0 0 -0 0 -0 -0 -0 0 1 0 0 -0 -0 -0 -0 -0 -0 -1 -0 -0 0 nan
nan 0 0 0 0 0 0 0 0 0 0 0 0 -0 -0 -0 -0 -0 -0 -0 -0 0 0 -0 0 0 0 0 0 0 1 0 0 -0 -0 -0 -0 -0 -0 -1 -1 0 nan
nan 0 1 1 0 0 0 0 0 0 0 0 0 -0 -0 -0 -0 -0 -0 0 0 0 0 0 -0 0 0 0 0 0 1 0 0 0 0 0 -0 -0 -0 -0 -0 -1 nan
nan 1 1 0 0 0 0 0 0 0 0 0 0 -0 -0 -0 -0 -0 -0 -0 -0 0 0 0 0 0 0 -0 -0 0 0 0 0 0 0 0 0 -0 0 -0 -0 -0 nan
nan 0 0 0 0 0 0 0 0 0 0 0 0 0 -0 -0 -0 -0 -0 -0 -0 -0 0 0 0 0 0 0 0 -0 0 0 0 0 0 0 0 0 0 -0 -0 -0 nan
nan 0 0 0 0 0 0 0 0 0 0 0 0 0 -0 -0 0 0 0 -0 -0 -0 0 0 0 0 0 0 0 0 0 0 0 0 0 0 0 0 0 0 -0 -0 nan
nan 0 0 0 0 0 0 0 0 0 -0 -0 -0 0 0 0 0 0 0 0 -0 -0 -0 0 0 0 0 0 0 0 0 -0 -0 0 0 -0 0 0 0 0 0 0 nan
nan 0 0 0 0 0 0 0 -0 -0 -0 -0 -0 -0 -0 -0 -0 -0 -0 0 0 0 -0 -0 0 0 0 0 0 0 -0 -0 -0 0 0 0 0 -0 0 0 0 0 nan
nan 0 0 0 0 0 0 -0 -0 -0 -0 -0 -0 -0 -0 -0 -0 -0 -0 -0 -0 -0 -0 -0 -0 0 0 0 0 0 0 -0 -0 -0 -0 -0 -0 0 0 0 0 0 nan
nan 0 0 0 0 0 0 0 0 0 -0 -0 -0 -0 -0 -0 -0 -0 -0 -0 -0 -0 -0 -0 -0 -0 -0 -0 0 0 0 0 0 0 -0 -0 -0 -0 0 0 0 0 nan
nan 0 0 0 0 0 0 0 0 0 -0 -0 -0 -0 -0 -0 -0 -0 -0 -0 -0 -0 -0 -0 -0 -0 -0 -0 -0 0 0 0 0 0 0 0 -0 -0 0 0 0 0 nan
nan 0 0 0 0 0 0 0 0 0 -0 -0 -0 -0 -0 -0 -0 -0 -0 -0 -0 -0 -0 -0 -0 0 0 0 0 0 0 -0 -0 0 0 -0 0 0 0 -0 0 0 nan
nan 0 0 0 0 0 0 0 0 0 0 0 -0 -0 -0 -0 -0 -0 -0 -0 -0 -0 -0 -0 -0 -0 -0 -0 0 0 0 0 -0 -0 -0 0 -0 0 0 0 0 0 nan
nan 0 0 0 0 0 0 0 0 0 0 0 -0 -0 -0 -0 -0 -0 -0 -0 -0 -0 -0 -0 -0 -0 -0 -0 -0 -0 -0 0 -0 -0 -0 -0 0 -0 -0 0 0 0 nan
nan 0 0 0 0 0 0 0 0 0 0 0 -0 -0 -0 -0 -0 -0 -0 -0 -0 -0 -0 -0 -0 -0 -0 -0 -0 -0 -0 -0 -0 -0 -0 -0 -0 0 -0 -0 -0 0 nan
nan 1 1 0 0 0 0 0 0 0 0 0 -0 -0 -0 -0 -0 -0 -0 -0 -0 -0 -0 -0 -0 -0 -0 -0 -0 -0 -0 -0 -0 -0 -0 -0 -0 -0 -0 -0 -0 -0 nan
nan 1 1 0 0 0 0 0 0 0 0 0 -0 -0 -0 -0 -0 -0 -0 -0 -0 -0 -0 -0 -0 -0 -0 -0 -0 -1 -1 -0 -0 -0 -0 -0 -0 -0 -0 -0 -0 -0 nan
nan 1 0 0 0 0 0 0 0 0 0 0 0 -0 -0 -0 -0 -0 -0 -0 -0 -0 -0 -0 -0 0 -0 0 0 -0 -0 -1 -1 -0 -0 -0 -0 -0 -0 -0 -0 -0 nan
nan 0 0 0 0 0 0 0 0 0 0 0 0 -0 -0 -0 -0 -0 -0 -0 -0 -0 -0 -0 -0 -0 0 0 -0 0 0 -0 -0 -0 -0 0 0 -0 -0 0 -0 -0 nan
nan 0 0 0 0 0 0 0 0 0 0 -0 0 -0 0 0 -0 -0 -0 -0 -0 -0 -0 -0 -1 -0 -0 -0 -0 -0 0 0 0 -0 -0 -0 0 0 -0 0 1 0 nan
nan 1 0 0 0 0 0 0 0 -0 -0 -0 0 0 -0 -0 0 0 -0 -0 -0 -0 -0 -0 -1 -1 -1 -0 -0 -0 -0 -0 -0 -0 -0 -0 -0 -0 -0 0 1 1 nan
nan 1 0 0 0 0 0 0 0 -0 -0 0 0 0 0 -0 -0 -0 0 -0 -0 0 -0 -0 -0 -0 -1 -1 -0 -1 -1 -1 -1 -1 -1 -1 -1 -1 -1 -0 -1 -1 nan
nan nan nan nan nan nan nan nan nan nan nan nan nan nan nan nan nan nan nan nan nan nan nan nan nan nan nan nan nan nan nan nan nan nan nan nan nan nan nan nan nan nan nan
Wind_Speed
20 20 18 15 16 16 15 13 12 12 12 12 11 10 10 10 10 11 13 15 16 17 18 18 17 17 17 16 15 14 16 13 12 9 5 4 2 4 1 3 5 5 6
23 21 19 16 14 14 15 15 14 14 13 11 11 9 9 9 8 10 12 15 17 18 18 18 17 17 17 16 12 11 13 15 11 13 5 2 1 1 3 2 4 4 2
26 25 23 19 15 15 15 15 15 14 12 11 10 9 9 8 9 11 14 16 18 18 18 17 16 16 17 18 16 10 10 12 6 8 8 4 4 13 5 5 6 3 1
27 28 25 21 16 13 13 14 14 12 11 9 9 9 9 9 10 14 18 18 18 18 18 16 16 15 16 17 17 14 9 8 9 4 3 5 6 5 7 3 4 2 4
23 26 23 19 15 14 13 12 11 9 8 8 9 9 9 10 14 18 19 19 19 18 17 16 15 14 15 16 17 16 11 7 7 8 8 7 7 6 5 10 13 1 4
20 18 17 16 13 11 9 8 7 7 7 8 9 9 11 14 18 19 18 17 16 15 15 15 14 14 15 15 15 16 16 11 7 9 8 7 6 8 7 11 13 15 2
18 16 15 13 11 10 9 8 7 7 7 8 9 12 14 17 18 17 16 16 15 14 13 14 15 15 15 16 16 14 14 14 13 12 9 7 9 10 11 12 13 12 13
16 15 14 13 11 8 7 6 6 7 8 10 11 13 14 15 15 17 17 17 16 15 14 14 15 16 16 17 18 17 14 14 14 14 12 10 8 8 11 12 12 15 10
18 17 15 12 9 8 7 6 5 5 6 8 10 12 14 16 18 18 17 17 17 16 15 15 15 15 16 16 17 17 15 15 14 14 13 13 10 10 10 10 11 11 12
21 17 15 13 10 9 7 5 5 6 7 9 11 13 14 15 16 17 17 18 18 17 17 16 16 16 15 15 16 17 15 16 14 14 14 14 12 12 11 11 11 12 15
20 17 14 12 10 8 7 6 6 7 9 10 10 11 11 12 13 15 16 17 18 18 18 18 17 17 16 15 16 16 16 17 16 15 16 15 14 14 13 13 13 14 16
18 16 14 13 11 9 6 6 6 7 8 8 8 9 10 11 12 13 14 15 16 16 17 17 17 17 16 15 16 17 16 17 17 16 16 17 16 16 16 16 16 16 14
21 19 17 14 10 8 6 6 5 5 5 6 6 6 7 8 9 10 10 11 12 13 13 15 15 16 16 16 16 17 17 17 18 18 18 18 18 17 17 17 18 18 18
23 20 17 14 11 7 6 5 4 4 4 4 5 6 7 9 11 12 12 12 13 13 13 12 13 13 14 15 16 17 18 19 19 18 19 19 19 19 18 18 19 20 21
23 20 18 13 10 8 7 5 4 3 3 3 4 5 7 8 10 10 11 12 13 14 14 15 14 15 14 14 16 17 18 19 19 18 18 19 19 20 20 21 20 21 22
27 24 19 16 13 11 9 7 5 4 3 2 1 3 5 7 8 9 11 12 13 13 14 15 16 16 16 16 16 18 19 18 19 19 19 20 20 21 21 22 23 22 23
28 26 22 17 13 10 8 7 6 5 4 2 2 4 5 7 8 9 11 12 13 14 15 15 16 15 14 15 16 16 17 18 19 19 20 20 20 20 21 22 23 23 23
27 25 21 17 14 12 10 9 8 6 5 3 3 4 5 6 8 10 12 13 15 16 17 16 16 16 15 15 15 15 15 16 16 16 17 19 19 19 20 21 23 23 23
24 22 18 16 14 12 11 9 8 7 6 5 5 6 7 8 10 12 15 17 18 18 18 17 17 17 16 16 15 15 15 14 14 14 14 15 16 17 16 19 21 22 22
20 19 17 15 13 12 11 10 9 8 7 5 5 6 8 11 14 16 18 19 19 18 18 17 16 16 17 15 15 16 16 15 14 13 13 13 14 14 15 16 19 21 21
19 18 15 13 12 11 11 10 9 8 7 6 6 8 10 13 15 15 16 16 16 16 16 16 15 14 15 16 16 16 17 17 18 18 17 16 15 14 15 15 16 19 21
18 16 13 12 12 11 11 9 8 8 7 7 8 10 12 13 14 15 16 16 16 17 17 18 17 15 15 16 17 17 17 18 21 22 23 25 24 22 21 20 18 19 20
16 14 13 12 12 11 11 9 8 8 8 9 11 13 14 14 15 16 16 17 17 19 19 21 21 21 19 18 19 19 19 19 21 22 24 25 27 29 30 28 27 24 24
17 15 14 13 13 11 9 8 8 9 10 12 14 15 15 16 15 16 16 18 18 20 21 21 22 23 23 23 23 24 23 23 24 25 25 25 27 28 29 27 24 22 21
16 15 13 12 11 10 9 9 10 11 12 15 16 16 17 18 19 19 19 19 18 20 22 21 22 24 25 25 25 27 28 28 28 28 27 27 27 27 26 26 26 25 22
16 14 12 11 10 10 9 9 10 12 15 17 18 18 19 19 20 22 22 19 21 20 20 20 22 23 26 28 27 28 29 28 27 26 27 26 25 25 25 26 27 25 24
Wind_Direction
194 202 214 209 213 217 221 227 238 250 261 271 277 284 301 315 325 336 340 340 340 340 343 340 340 341 340 333 331 324 341 358 355 24 82 103 74 350 134 39 28 18 35
201 206 206 213 224 231 233 235 242 252 260 264 270 280 298 308 317 327 334 334 335 338 340 340 341 342 344 337 327 351 352 354 8 8 22 28 213 38 244 292 327 349 22
202 202 204 213 220 229 237 245 249 251 252 257 264 279 293 301 312 323 328 330 329 331 333 333 339 341 344 347 342 348 349 347 33 31 24 351 333 334 243 273 321 313 192
210 207 207 212 221 229 237 241 240 243 249 253 264 281 290 298 313 324 325 324 321 320 323 326 332 337 341 346 343 337 331 337 339 331 321 350 321 332 323 286 330 179 187
194 197 207 215 222 234 248 237 231 231 241 256 272 284 290 300 310 317 316 315 313 312 315 317 319 328 333 340 340 340 324 317 315 315 327 326 312 302 296 310 330 162 233
183 190 202 212 219 221 212 207 213 226 246 265 277 281 286 295 303 310 314 316 316 312 309 307 309 316 324 330 331 334 337 330 307 300 303 299 295 294 297 302 317 327 4
183 193 194 190 190 188 188 197 213 235 256 265 269 278 288 296 303 309 313 317 319 318 311 304 301 305 311 317 319 320 324 323 323 319 307 304 280 279 282 288 305 311 322
182 180 181 182 183 193 207 220 231 244 259 271 278 284 288 293 298 303 306 309 311 313 312 304 299 301 302 307 310 308 310 310 309 306 299 294 295 288 278 277 287 303 304
178 179 179 188 196 204 208 214 227 244 256 267 276 283 289 292 295 298 300 300 301 302 303 302 300 297 297 298 298 299 302 301 301 300 295 291 289 292 297 281 269 277 289
171 178 186 192 198 198 199 205 224 244 263 279 288 292 294 296 296 297 299 299 300 299 300 300 300 300 297 295 291 293 297 296 298 297 292 288 289 289 286 289 277 262 262
178 182 186 186 186 190 202 222 253 279 289 293 296 298 301 302 303 303 302 301 301 300 299 298 297 298 299 297 290 291 293 294 294 294 291 288 287 286 284 281 276 278 264
184 185 184 185 191 202 224 256 272 284 294 302 311 316 319 319 318 316 316 314 312 311 308 303 300 298 297 295 291 290 292 292 293 293 290 287 285 283 283 280 279 278 280
185 185 189 193 203 219 239 261 278 290 306 321 328 331 332 335 336 336 334 329 324 321 317 313 310 306 301 296 292 288 287 288 290 290 289 289 284 282 283 281 280 281 281
190 190 194 202 210 225 240 251 265 282 303 323 335 346 352 358 358 356 352 346 340 334 329 323 318 313 308 302 296 291 288 286 285 284 285 286 284 285 282 278 279 281 280
191 196 201 206 218 227 235 242 251 270 303 328 348 1 8 9 3 360 359 356 351 347 342 334 328 322 316 309 302 296 292 289 287 285 284 283 282 280 278 278 278 277 278
199 202 205 213 220 224 226 228 226 225 229 253 341 13 6 3 358 358 359 357 355 352 350 344 339 336 329 317 305 300 298 297 296 294 289 285 282 281 278 275 273 272 274
200 204 211 216 219 219 216 215 219 223 218 238 321 343 346 347 348 349 347 345 346 345 344 342 339 340 335 326 320 314 308 303 301 298 294 290 289 285 281 276 271 268 267
202 205 208 211 212 212 211 215 217 220 225 256 296 313 323 329 335 337 337 336 335 334 333 332 330 332 333 330 326 323 321 319 318 314 308 300 295 291 287 280 274 272 270
206 206 207 206 208 210 211 216 218 221 228 255 282 304 316 324 326 326 326 326 324 322 321 322 323 325 330 332 332 327 327 328 332 332 324 314 308 302 293 285 284 282 279
198 200 200 206 210 210 213 216 219 224 234 262 284 301 311 319 322 324 324 324 323 323 321 318 317 318 319 324 325 327 325 323 326 333 333 331 323 316 309 300 295 294 298
193 196 202 208 210 213 216 218 222 232 248 268 288 304 310 312 314 319 324 325 324 323 321 320 324 323 318 313 314 316 317 315 316 321 323 322 318 317 317 313 307 304 302
192 198 206 208 211 213 215 219 231 244 258 275 289 298 306 312 316 317 320 321 320 320 321 322 323 325 327 325 320 315 309 304 302 305 305 305 308 308 305 304 304 305 305
200 205 209 209 212 215 219 227 239 251 266 282 294 301 305 309 312 314 314 316 315 317 320 321 323 323 323 323 320 315 313 310 306 304 303 300 299 298 296 294 294 297 302
202 202 203 207 212 217 226 239 251 267 283 291 293 298 303 305 308 309 312 312 312 312 316 319 320 322 323 324 321 317 315 312 311 308 306 306 304 302 298 294 292 287 287
200 200 203 206 211 219 232 249 267 279 286 290 298 305 307 307 306 305 308 308 307 309 313 316 318 322 321 322 321 320 318 318 316 312 310 309 307 303 302 304 304 296 288
201 202 204 207 215 227 243 266 283 288 290 292 298 302 302 302 302 302 300 296 300 299 300 307 313 314 315 317 315 313 311 312 312 310 310 308 301 298 301 302 303 304 305
Height
1540 1542 1544 1546 1547 1549 1550 1551 1552 1552 1553 1553 1553 1552 1552 1551 1549 1548 1547 1545 1543 1540 1537 1534 1531 1528 1525 1522 1520 1518 1515 1513 1510 1509 1508 1507 1506 1505 1505 1503 1503 1502 1501
1537 1539 1541 1543 1545 1547 1548 1548 1549 1549 1550 1550 1550 1550 1549 1549 1548 1547 1546 1544 1541 1538 1536 1533 1530 1528 1525 1522 1520 1517 1516 1514 1511 1509 1507 1507 1508 1506 1505 1504 1503 1502 1502
1533 1536 1539 1542 1543 1544 1545 1546 1547 1547 1547 1547 1547 1547 1547 1546 1546 1545 1544 1541 1539 1536 1534 1532 1529 1527 1524 1522 1519 1517 1517 1515 1513 1511 1510 1508 1507 1505 1504 1503 1503 1502 1501
1531 1534 1537 1539 1541 1542 1543 1543 1544 1545 1545 1545 1545 1545 1545 1545 1544 1542 1541 1539 1537 1534 1532 1530 1528 1526 1523 1521 1519 1516 1516 1515 1513 1512 1511 1510 1509 1506 1503 1502 1502 1501 1501
1528 1532 1535 1537 1539 1539 1540 1540 1542 1542 1543 1543 1543 1543 1543 1542 1541 1540 1538 1536 1533 1531 1529 1527 1526 1525 1523 1520 1519 1516 1514 1514 1513 1511 1510 1509 1508 1507 1506 1502 1501 1500 1500
1527 1530 1532 1534 1536 1536 1537 1538 1540 1541 1541 1541 1541 1540 1540 1539 1537 1536 1534 1532 1529 1528 1526 1524 1523 1522 1520 1518 1517 1515 1514 1512 1511 1510 1508 1508 1508 1507 1506 1504 1502 1500 1499
1525 1527 1529 1531 1533 1535 1536 1537 1538 1538 1538 1538 1538 1537 1536 1535 1533 1532 1530 1528 1526 1525 1523 1521 1520 1519 1518 1516 1514 1512 1511 1511 1509 1508 1507 1506 1505 1505 1504 1503 1501 1500 1497
1523 1526 1528 1530 1532 1533 1534 1535 1536 1536 1536 1536 1535 1534 1533 1532 1530 1528 1527 1525 1523 1521 1520 1518 1517 1516 1515 1513 1512 1510 1508 1507 1507 1506 1505 1503 1503 1503 1502 1501 1501 1499 1497
1521 1524 1527 1529 1531 1532 1533 1533 1534 1534 1534 1533 1532 1531 1530 1528 1527 1525 1523 1521 1519 1517 1516 1515 1513 1512 1510 1509 1508 1507 1506 1504 1503 1503 1502 1500 1500 1500 1500 1499 1498 1498 1496
1520 1523 1525 1528 1529 1531 1531 1532 1532 1532 1531 1531 1529 1528 1526 1524 1523 1521 1519 1517 1516 1514 1512 1511 1510 1509 1507 1505 1504 1504 1502 1501 1500 1499 1499 1497 1497 1496 1496 1496 1495 1495 1494
1519 1522 1524 1527 1528 1529 1530 1530 1530 1530 1529 1528 1526 1525 1523 1521 1519 1517 1515 1513 1511 1509 1508 1506 1505 1504 1502 1501 1500 1500 1498 1497 1496 1496 1495 1494 1493 1492 1492 1492 1492 1491 1491
1518 1521 1523 1525 1526 1527 1528 1528 1528 1527 1527 1525 1524 1522 1520 1518 1516 1514 1512 1510 1508 1506 1504 1502 1501 1499 1498 1497 1496 1495 1494 1493 1492 1491 1491 1490 1489 1488 1488 1487 1487 1486 1486
1514 1517 1520 1522 1524 1525 1525 1525 1525 1525 1524 1522 1521 1519 1517 1515 1513 1511 1508 1506 1504 1503 1501 1499 1497 1495 1494 1493 1492 1491 1490 1488 1488 1487 1486 1486 1484 1483 1483 1483 1482 1481 1481
1511 1514 1516 1518 1520 1522 1522 1522 1522 1521 1520 1519 1518 1517 1516 1514 1512 1510 1507 1506 1503 1500 1498 1496 1493 1491 1490 1489 1487 1486 1485 1483 1482 1482 1481 1480 1479 1478 1478 1477 1477 1476 1475
1509 1511 1513 1516 1517 1518 1519 1519 1519 1519 1518 1517 1516 1515 1514 1512 1512 1509 1506 1504 1502 1500 1497 1494 1491 1489 1487 1485 1483 1482 1480 1478 1477 1477 1476 1475 1474 1473 1472 1471 1471 1470 1469
1503 1506 1509 1511 1512 1514 1515 1515 1515 1514 1514 1514 1513 1513 1512 1510 1509 1507 1505 1503 1501 1499 1496 1492 1489 1487 1484 1482 1480 1478 1475 1474 1473 1471 1470 1469 1468 1467 1466 1465 1464 1464 1462
1498 1501 1505 1508 1510 1511 1512 1512 1513 1512 1512 1512 1512 1511 1511 1509 1507 1505 1503 1501 1499 1496 1493 1490 1487 1484 1482 1480 1477 1474 1472 1470 1468 1466 1464 1463 1462 1460 1459 1459 1458 1457 1456
1493 1498 1501 1504 1506 1507 1508 1509 1509 1510 1510 1510 1510 1509 1508 1506 1505 1503 1501 1499 1496 1494 1491 1488 1486 1482 1480 1477 1474 1471 1469 1467 1464 1462 1460 1457 1456 1454 1453 1451 1451 1450 1449
1491 1495 1498 1500 1502 1503 1504 1506 1507 1507 1508 1508 1508 1507 1506 1504 1502 1500 1498 1495 1493 1490 1488 1486 1483 1480 1478 1475 1472 1469 1466 1463 1461 1458 1456 1453 1451 1450 1448 1446 1444 1443 1442
1490 1493 1496 1497 1499 1501 1502 1503 1504 1505 1505 1505 1505 1504 1502 1501 1499 1497 1494 1491 1489 1487 1484 1482 1480 1478 1475 1472 1469 1466 1464 1460 1457 1455 1454 1451 1449 1446 1444 1442 1440 1437 1436
1488 1490 1492 1494 1496 1498 1499 1500 1501 1502 1502 1502 1501 1501 1499 1498 1496 1493 1490 1488 1486 1484 1481 1479 1476 1474 1471 1469 1466 1464 1461 1457 1454 1451 1450 1448 1446 1444 1441 1439 1436 1434 1431
1484 1487 1489 1491 1493 1495 1496 1497 1498 1499 1499 1499 1498 1497 1496 1494 1492 1489 1487 1484 1482 1479 1477 1474 1472 1470 1468 1465 1462 1459 1456 1453 1449 1447 1445 1443 1441 1439 1437 1435 1433 1430 1427
1482 1484 1486 1488 1490 1492 1493 1494 1494 1495 1495 1495 1494 1493 1491 1489 1488 1486 1484 1481 1478 1475 1473 1470 1466 1464 1463 1461 1458 1456 1452 1449 1445 1442 1440 1437 1435 1433 1431 1429 1428 1425 1422
1476 1479 1482 1485 1487 1489 1490 1491 1491 1491 1491 1491 1490 1488 1487 1486 1484 1482 1479 1477 1475 1472 1469 1466 1463 1460 1458 1456 1453 1451 1446 1445 1440 1436 1433 1431 1429 1427 1423 1421 1419 1417 1415
1474 1476 1479 1481 1484 1486 1487 1487 1486 1487 1486 1485 1484 1483 1482 1481 1479 1477 1475 1472 1471 1468 1465 1462 1459 1455 1453 1451 1448 1445 1441 1437 1433 1429 1426 1423 1421 1419 1415 1413 1410 1408 1406
1472 1474 1477 1479 1481 1482 1483 1483 1483 1482 1481 1480 1479 1478 1476 1475 1473 1471 1469 1469 1465 1464 1462 1459 1455 1452 1449 1446 1443 1440 1436 1432 1428 1423 1419 1417 1414 1411 1409 1407 1403 1401 1399